Station Historical Data
Daily Summary for October 31, 2017 Units:  English    Metric   Both
Next Day »
Daily Weekly Monthly Yearly Custom
  High: Low: Average:
Temperature: 60.1 °F 48.0 °F 52.3 °F
Dew Point: 48.3 °F 41.2 °F 44.8 °F
Humidity: 84% 63% 76%
Wind Speed: 5.0mph 0.0mph 0.2mph
Wind Gust: 9.0mph - -
Wind- - SSW
Pressure: 29.99 in 29.83 in -
Precipitation: 0.00 in    
Historical Graphs
 
 
Tabular Data for October 31, 2017
Time Temperature Dew Point Pressure Wind Wind Speed Wind Gust Humidity Rainfall Rate (Hourly) solar Conditions
00:02 50.8 °F 44.9 °F 29.83 in Calm   1.0 mph 80% 0.00 in 0.00 W/m2
00:07 50.9 °F 45.0 °F 29.83 in East 1.0 mph 1.0 mph 80% 0.00 in 0.00 W/m2
00:12 51.0 °F 45.1 °F 29.83 in Calm   1.0 mph 80% 0.00 in 0.00 W/m2
00:17 51.1 °F 44.8 °F 29.83 in Calm     79% 0.00 in 0.00 W/m2
00:22 51.2 °F 44.9 °F 29.83 in Calm     79% 0.00 in 0.00 W/m2
00:27 51.3 °F 45.0 °F 29.83 in Calm     79% 0.00 in 0.00 W/m2
00:32 51.3 °F 45.0 °F 29.83 in Calm     79% 0.00 in 0.00 W/m2
00:37 51.4 °F 45.1 °F 29.83 in Calm     79% 0.00 in 0.00 W/m2
00:42 51.4 °F 44.8 °F 29.83 in Calm     78% 0.00 in 0.00 W/m2
00:47 51.4 °F 44.8 °F 29.83 in Calm     78% 0.00 in 0.00 W/m2
00:52 51.5 °F 44.5 °F 29.83 in Calm     77% 0.00 in 0.00 W/m2
00:57 51.5 °F 44.5 °F 29.84 in Calm     77% 0.00 in 0.00 W/m2
01:02 51.6 °F 44.6 °F 29.84 in Calm     77% 0.00 in 0.00 W/m2
01:07 51.6 °F 44.6 °F 29.84 in Calm     77% 0.00 in 0.00 W/m2
01:12 51.6 °F 44.6 °F 29.84 in Calm     77% 0.00 in 0.00 W/m2
01:17 51.6 °F 44.6 °F 29.84 in Calm     77% 0.00 in 0.00 W/m2
01:22 51.6 °F 44.6 °F 29.85 in Calm     77% 0.00 in 0.00 W/m2
01:27 51.5 °F 44.5 °F 29.85 in Calm     77% 0.00 in 0.00 W/m2
01:32 51.4 °F 44.4 °F 29.85 in Calm     77% 0.00 in 0.00 W/m2
01:37 51.3 °F 44.7 °F 29.85 in Calm     78% 0.00 in 0.00 W/m2
01:42 51.1 °F 44.5 °F 29.85 in Calm     78% 0.00 in 0.00 W/m2
01:47 50.9 °F 44.6 °F 29.85 in Calm     79% 0.00 in 0.00 W/m2
01:52 50.6 °F 44.3 °F 29.85 in Calm     79% 0.00 in 0.00 W/m2
01:57 50.3 °F 44.4 °F 29.85 in Calm     80% 0.00 in 0.00 W/m2
02:02 50.1 °F 44.2 °F 29.85 in Calm     80% 0.00 in 0.00 W/m2
02:07 49.9 °F 44.0 °F 29.86 in Calm     80% 0.00 in 0.00 W/m2
02:12 49.7 °F 44.1 °F 29.86 in Calm     81% 0.00 in 0.00 W/m2
02:17 49.6 °F 44.0 °F 29.86 in Calm     81% 0.00 in 0.00 W/m2
02:22 49.6 °F 44.0 °F 29.86 in Calm     81% 0.00 in 0.00 W/m2
02:27 49.4 °F 43.8 °F 29.86 in Calm     81% 0.00 in 0.00 W/m2
02:37 49.3 °F 44.0 °F 29.86 in Calm     82% 0.00 in 0.00 W/m2
02:42 49.2 °F 44.0 °F 29.86 in Calm     82% 0.00 in 0.00 W/m2
02:47 49.2 °F 44.0 °F 29.85 in Calm     82% 0.00 in 0.00 W/m2
02:52 49.2 °F 44.0 °F 29.85 in Calm     82% 0.00 in 0.00 W/m2
02:57 49.2 °F 44.0 °F 29.85 in Calm     82% 0.00 in 0.00 W/m2
03:02 49.2 °F 44.0 °F 29.85 in Calm     82% 0.00 in 0.00 W/m2
03:07 49.2 °F 44.0 °F 29.85 in Calm     82% 0.00 in 0.00 W/m2
03:12 49.1 °F 43.8 °F 29.86 in Calm     82% 0.00 in 0.00 W/m2
03:17 49.0 °F 43.4 °F 29.86 in Calm     81% 0.00 in 0.00 W/m2
03:22 48.9 °F 43.3 °F 29.86 in Calm     81% 0.00 in 0.00 W/m2
03:27 48.9 °F 43.3 °F 29.86 in Calm     81% 0.00 in 0.00 W/m2
03:32 48.8 °F 43.2 °F 29.86 in Calm     81% 0.00 in 0.00 W/m2
03:37 48.8 °F 43.2 °F 29.86 in Calm     81% 0.00 in 0.00 W/m2
03:42 48.8 °F 43.2 °F 29.85 in Calm     81% 0.00 in 0.00 W/m2
03:47 48.7 °F 43.1 °F 29.85 in Calm     81% 0.00 in 0.00 W/m2
03:52 48.7 °F 42.8 °F 29.86 in Calm     80% 0.00 in 0.00 W/m2
03:57 48.7 °F 42.8 °F 29.86 in Calm     80% 0.00 in 0.00 W/m2
04:02 48.7 °F 42.5 °F 29.86 in Calm     79% 0.00 in 0.00 W/m2
04:07 48.7 °F 42.5 °F 29.85 in Calm     79% 0.00 in 0.00 W/m2
04:13 48.7 °F 42.2 °F 29.85 in Calm     78% 0.00 in 0.00 W/m2
04:17 48.7 °F 42.2 °F 29.85 in Calm     78% 0.00 in 0.00 W/m2
04:23 48.8 °F 42.3 °F 29.86 in Calm     78% 0.00 in 0.00 W/m2
04:28 48.8 °F 41.9 °F 29.86 in Calm     77% 0.00 in 0.00 W/m2
04:33 48.8 °F 41.9 °F 29.86 in Calm     77% 0.00 in 0.00 W/m2
04:38 48.8 °F 41.9 °F 29.86 in Calm     77% 0.00 in 0.00 W/m2
04:43 48.9 °F 42.0 °F 29.86 in Calm     77% 0.00 in 0.00 W/m2
04:48 48.9 °F 41.7 °F 29.86 in Calm     76% 0.00 in 0.00 W/m2
04:53 48.9 °F 41.3 °F 29.86 in Calm     75% 0.00 in 0.00 W/m2
04:58 49.0 °F 41.8 °F 29.86 in Calm     76% 0.00 in 0.00 W/m2
05:03 49.0 °F 41.8 °F 29.87 in Calm     76% 0.00 in 0.00 W/m2
05:08 49.0 °F 41.8 °F 29.87 in Calm     76% 0.00 in 0.00 W/m2
05:13 49.1 °F 41.9 °F 29.87 in Calm     76% 0.00 in 0.00 W/m2
05:18 49.1 °F 42.2 °F 29.87 in Calm     77% 0.00 in 0.00 W/m2
05:23 49.1 °F 42.2 °F 29.87 in Calm     77% 0.00 in 0.00 W/m2
05:28 49.0 °F 42.5 °F 29.87 in Calm     78% 0.00 in 0.00 W/m2
05:33 49.0 °F 42.8 °F 29.87 in Calm     79% 0.00 in 0.00 W/m2
05:38 49.0 °F 42.8 °F 29.87 in Calm     79% 0.00 in 0.00 W/m2
05:43 49.0 °F 42.8 °F 29.87 in Calm     79% 0.00 in 0.00 W/m2
05:48 48.9 °F 43.0 °F 29.87 in Calm     80% 0.00 in 0.00 W/m2
05:53 48.8 °F 42.9 °F 29.87 in Calm     80% 0.00 in 0.00 W/m2
05:58 48.6 °F 42.7 °F 29.87 in Calm     80% 0.00 in 0.00 W/m2
06:03 48.5 °F 42.6 °F 29.87 in Calm     80% 0.00 in 0.00 W/m2
06:08 48.6 °F 43.0 °F 29.87 in Calm     81% 0.00 in 0.00 W/m2
06:13 48.5 °F 43.0 °F 29.87 in Calm     81% 0.00 in 0.00 W/m2
06:18 48.5 °F 43.0 °F 29.87 in Calm     81% 0.00 in 0.00 W/m2
06:23 48.4 °F 42.5 °F 29.87 in Calm     80% 0.00 in 0.00 W/m2
06:28 48.3 °F 42.4 °F 29.87 in Calm     80% 0.00 in 0.00 W/m2
06:33 48.2 °F 42.3 °F 29.88 in Calm     80% 0.00 in 0.00 W/m2
06:38 48.0 °F 41.8 °F 29.88 in Calm     79% 0.00 in 0.00 W/m2
06:43 48.0 °F 41.8 °F 29.88 in Calm     79% 0.00 in 0.00 W/m2
06:49 48.0 °F 41.8 °F 29.88 in Calm     79% 0.00 in 0.00 W/m2
06:54 48.0 °F 41.8 °F 29.88 in Calm     79% 0.00 in 0.00 W/m2
06:59 48.0 °F 41.5 °F 29.88 in Calm     78% 0.00 in 0.00 W/m2
07:04 48.1 °F 41.6 °F 29.88 in Calm     78% 0.00 in 0.00 W/m2
07:09 48.1 °F 41.6 °F 29.88 in Calm     78% 0.00 in 0.00 W/m2
07:14 48.1 °F 41.9 °F 29.88 in Calm     79% 0.00 in 0.00 W/m2
07:19 48.1 °F 41.6 °F 29.89 in Calm     78% 0.00 in 0.00 W/m2
07:24 48.0 °F 41.8 °F 29.89 in Calm     79% 0.00 in 0.00 W/m2
07:29 48.0 °F 41.8 °F 29.89 in Calm     79% 0.00 in 5.00 W/m2
07:34 48.0 °F 41.5 °F 29.89 in Calm     78% 0.00 in 7.00 W/m2
07:39 48.0 °F 41.5 °F 29.89 in Calm     78% 0.00 in 11.00 W/m2
07:44 48.0 °F 41.5 °F 29.89 in Calm     78% 0.00 in 14.00 W/m2
07:49 48.1 °F 41.2 °F 29.90 in Calm     77% 0.00 in 18.00 W/m2
07:54 48.1 °F 41.2 °F 29.90 in Calm     77% 0.00 in 23.00 W/m2
07:59 48.2 °F 41.3 °F 29.90 in Calm     77% 0.00 in 32.00 W/m2
08:04 48.3 °F 41.4 °F 29.90 in Calm     77% 0.00 in 42.00 W/m2
08:09 48.4 °F 41.2 °F 29.90 in Calm     76% 0.00 in 54.00 W/m2
08:14 48.5 °F 41.3 °F 29.90 in Calm     76% 0.00 in 69.00 W/m2
08:19 48.6 °F 41.4 °F 29.90 in Calm     76% 0.00 in 83.00 W/m2
08:24 48.7 °F 41.5 °F 29.91 in Calm     76% 0.00 in 97.00 W/m2
08:29 48.8 °F 41.6 °F 29.91 in Calm     76% 0.00 in 114.00 W/m2
08:34 48.8 °F 41.6 °F 29.91 in Calm     76% 0.00 in 134.00 W/m2
08:39 48.9 °F 42.0 °F 29.91 in Calm     77% 0.00 in 151.00 W/m2
08:44 49.0 °F 42.1 °F 29.92 in Calm     77% 0.00 in 167.00 W/m2
08:49 49.2 °F 42.6 °F 29.92 in Calm     78% 0.00 in 186.00 W/m2
08:54 49.3 °F 42.7 °F 29.92 in Calm     78% 0.00 in 206.00 W/m2
08:59 49.5 °F 42.9 °F 29.92 in Calm     78% 0.00 in 221.00 W/m2
09:04 49.6 °F 43.0 °F 29.92 in Calm     78% 0.00 in 241.00 W/m2
09:09 49.7 °F 43.1 °F 29.92 in Calm     78% 0.00 in 258.00 W/m2
09:14 50.0 °F 43.4 °F 29.92 in Calm     78% 0.00 in 274.00 W/m2
09:19 50.2 °F 43.6 °F 29.93 in Calm     78% 0.00 in 290.00 W/m2
09:24 50.3 °F 43.7 °F 29.93 in Calm     78% 0.00 in 308.00 W/m2
09:29 50.5 °F 43.9 °F 29.93 in Calm     78% 0.00 in 325.00 W/m2
09:34 50.7 °F 44.1 °F 29.93 in Calm     78% 0.00 in 341.00 W/m2
09:39 51.0 °F 44.4 °F 29.93 in Calm     78% 0.00 in 353.00 W/m2
09:44 51.2 °F 44.6 °F 29.93 in Calm     78% 0.00 in 364.00 W/m2
09:49 51.4 °F 44.8 °F 29.93 in Calm     78% 0.00 in 378.00 W/m2
09:54 51.8 °F 45.2 °F 29.93 in Calm     78% 0.00 in 392.00 W/m2
09:59 52.1 °F 45.5 °F 29.93 in Calm     78% 0.00 in 404.00 W/m2
10:04 52.4 °F 45.8 °F 29.93 in Calm     78% 0.00 in 417.00 W/m2
10:05 52.4 °F 45.4 °F 29.93 in Calm     77% 0.00 in 418.00 W/m2
10:10 52.7 °F 46.0 °F 29.93 in Calm     78% 0.00 in 431.00 W/m2
10:15 52.8 °F 45.8 °F 29.93 in Calm     77% 0.00 in 443.00 W/m2
10:20 53.0 °F 46.0 °F 29.94 in Calm     77% 0.00 in 454.00 W/m2
10:21 53.0 °F 46.0 °F 29.94 in Calm     77% 0.00 in 454.00 W/m2
10:26 53.1 °F 46.1 °F 29.94 in Calm     77% 0.00 in 468.00 W/m2
10:31 53.3 °F 46.3 °F 29.94 in Calm     77% 0.00 in 476.00 W/m2
10:36 53.5 °F 46.5 °F 29.93 in Calm     77% 0.00 in 485.00 W/m2
10:41 53.7 °F 46.7 °F 29.93 in Calm   3.0 mph 77% 0.00 in 496.00 W/m2
10:46 54.0 °F 47.0 °F 29.93 in Calm   2.0 mph 77% 0.00 in 508.00 W/m2
10:51 54.3 °F 47.2 °F 29.93 in Calm     77% 0.00 in 515.00 W/m2
10:56 54.5 °F 47.1 °F 29.94 in Calm   2.0 mph 76% 0.00 in 526.00 W/m2
11:01 54.8 °F 47.0 °F 29.93 in Calm   1.0 mph 75% 0.00 in 534.00 W/m2
11:06 55.0 °F 46.9 °F 29.93 in Calm     74% 0.00 in 543.00 W/m2
11:11 55.2 °F 46.7 °F 29.94 in Calm   3.0 mph 73% 0.00 in 552.00 W/m2
11:16 55.6 °F 46.7 °F 29.94 in Calm     72% 0.00 in 559.00 W/m2
11:21 55.9 °F 47.0 °F 29.94 in Calm   3.0 mph 72% 0.00 in 564.00 W/m2
11:26 56.1 °F 46.8 °F 29.94 in Calm   2.0 mph 71% 0.00 in 570.00 W/m2
11:31 56.3 °F 46.7 °F 29.94 in Calm     70% 0.00 in 577.00 W/m2
11:36 56.4 °F 46.0 °F 29.94 in Calm     68% 0.00 in 582.00 W/m2
11:41 56.6 °F 46.6 °F 29.95 in Calm     69% 0.00 in 587.00 W/m2
11:46 56.7 °F 46.7 °F 29.95 in Calm     69% 0.00 in 594.00 W/m2
11:51 56.7 °F 46.7 °F 29.95 in NW 3.0 mph 3.0 mph 69% 0.00 in 598.00 W/m2
11:56 56.6 °F 46.9 °F 29.95 in NW 2.0 mph 3.0 mph 70% 0.00 in 601.00 W/m2
12:01 56.7 °F 47.0 °F 29.95 in WNW 1.0 mph 3.0 mph 70% 0.00 in 603.00 W/m2
12:07 56.8 °F 46.8 °F 29.95 in West 3.0 mph 5.0 mph 69% 0.00 in 606.00 W/m2
12:12 56.9 °F 46.5 °F 29.95 in WSW 1.0 mph 3.0 mph 68% 0.00 in 612.00 W/m2
12:17 56.9 °F 46.5 °F 29.95 in Calm     68% 0.00 in 613.00 W/m2
12:22 57.0 °F 46.6 °F 29.94 in Calm   1.0 mph 68% 0.00 in 615.00 W/m2
12:27 56.9 °F 46.1 °F 29.94 in Calm     67% 0.00 in 617.00 W/m2
12:32 57.0 °F 46.2 °F 29.94 in Calm   5.0 mph 67% 0.00 in 619.00 W/m2
12:37 57.1 °F 46.7 °F 29.94 in Calm   2.0 mph 68% 0.00 in 619.00 W/m2
12:42 57.3 °F 46.8 °F 29.94 in West 4.0 mph 5.0 mph 68% 0.00 in 619.00 W/m2
12:47 57.1 °F 45.9 °F 29.94 in WNW 4.0 mph 4.0 mph 66% 0.00 in 617.00 W/m2
12:52 56.9 °F 46.1 °F 29.94 in Calm   4.0 mph 67% 0.00 in 617.00 W/m2
12:57 56.8 °F 46.0 °F 29.94 in WNW 2.0 mph 2.0 mph 67% 0.00 in 615.00 W/m2
13:02 56.8 °F 45.6 °F 29.94 in Calm     66% 0.00 in 613.00 W/m2
13:07 56.8 °F 46.0 °F 29.94 in Calm   3.0 mph 67% 0.00 in 613.00 W/m2
13:12 56.9 °F 46.1 °F 29.94 in Calm   1.0 mph 67% 0.00 in 610.00 W/m2
13:17 57.0 °F 46.2 °F 29.94 in Calm     67% 0.00 in 608.00 W/m2
13:22 57.2 °F 46.4 °F 29.93 in Calm     67% 0.00 in 605.00 W/m2
13:27 57.4 °F 46.2 °F 29.93 in Calm   1.0 mph 66% 0.00 in 603.00 W/m2
13:32 57.6 °F 46.7 °F 29.93 in Calm     67% 0.00 in 596.00 W/m2
13:37 57.8 °F 46.5 °F 29.93 in Calm     66% 0.00 in 594.00 W/m2
13:42 58.0 °F 47.1 °F 29.93 in Calm   2.0 mph 67% 0.00 in 587.00 W/m2
13:47 58.2 °F 46.9 °F 29.93 in WNW 1.0 mph 4.0 mph 66% 0.00 in 589.00 W/m2
13:52 58.4 °F 47.1 °F 29.92 in West 3.0 mph 4.0 mph 66% 0.00 in 582.00 W/m2
13:57 58.6 °F 47.3 °F 29.92 in Calm   5.0 mph 66% 0.00 in 571.00 W/m2
14:02 58.7 °F 47.4 °F 29.92 in Calm     66% 0.00 in 564.00 W/m2
14:07 58.9 °F 47.6 °F 29.92 in Calm     66% 0.00 in 561.00 W/m2
14:12 59.1 °F 47.8 °F 29.92 in Calm   2.0 mph 66% 0.00 in 550.00 W/m2
14:17 59.3 °F 47.5 °F 29.92 in Calm   4.0 mph 65% 0.00 in 540.00 W/m2
14:22 59.4 °F 47.7 °F 29.92 in Calm   2.0 mph 65% 0.00 in 536.00 W/m2
14:27 59.5 °F 47.7 °F 29.92 in Calm     65% 0.00 in 531.00 W/m2
14:33 59.5 °F 47.3 °F 29.92 in Calm     64% 0.00 in 522.00 W/m2
14:38 59.5 °F 47.3 °F 29.91 in Calm   2.0 mph 64% 0.00 in 503.00 W/m2
14:43 59.6 °F 47.4 °F 29.91 in Calm   4.0 mph 64% 0.00 in 496.00 W/m2
14:48 59.6 °F 47.0 °F 29.91 in Calm     63% 0.00 in 483.00 W/m2
14:53 59.7 °F 47.5 °F 29.91 in Calm   1.0 mph 64% 0.00 in 476.00 W/m2
14:58 59.8 °F 48.0 °F 29.91 in Calm   5.0 mph 65% 0.00 in 471.00 W/m2
15:03 59.9 °F 48.1 °F 29.91 in Calm   7.0 mph 65% 0.00 in 455.00 W/m2
15:08 60.0 °F 48.2 °F 29.91 in Calm   4.0 mph 65% 0.00 in 448.00 W/m2
15:13 60.0 °F 48.2 °F 29.91 in Calm     65% 0.00 in 434.00 W/m2
15:18 60.0 °F 48.2 °F 29.91 in Calm   5.0 mph 65% 0.00 in 424.00 W/m2
15:23 60.1 °F 48.3 °F 29.91 in Calm   5.0 mph 65% 0.00 in 415.00 W/m2
15:28 60.0 °F 48.2 °F 29.91 in Calm   4.0 mph 65% 0.00 in 399.00 W/m2
15:33 60.1 °F 48.3 °F 29.91 in Calm     65% 0.00 in 380.00 W/m2
15:38 60.0 °F 47.8 °F 29.91 in Calm   3.0 mph 64% 0.00 in 373.00 W/m2
15:43 59.9 °F 48.1 °F 29.92 in Calm     65% 0.00 in 362.00 W/m2
15:48 59.7 °F 48.3 °F 29.91 in SW 5.0 mph 5.0 mph 66% 0.00 in 352.00 W/m2
15:53 59.6 °F 48.2 °F 29.91 in Calm   1.0 mph 66% 0.00 in 339.00 W/m2
15:58 59.5 °F 48.2 °F 29.91 in Calm   1.0 mph 66% 0.00 in 325.00 W/m2
16:03 59.5 °F 48.2 °F 29.91 in Calm   4.0 mph 66% 0.00 in 313.00 W/m2
16:08 59.4 °F 48.0 °F 29.92 in SW 1.0 mph 2.0 mph 66% 0.00 in 299.00 W/m2
16:13 59.3 °F 48.0 °F 29.92 in SW 2.0 mph 4.0 mph 66% 0.00 in 283.00 W/m2
16:18 59.2 °F 47.9 °F 29.92 in Calm   4.0 mph 66% 0.00 in 269.00 W/m2
16:23 59.1 °F 48.2 °F 29.92 in Calm   4.0 mph 67% 0.00 in 253.00 W/m2
16:28 59.0 °F 48.1 °F 29.92 in Calm   5.0 mph 67% 0.00 in 237.00 W/m2
16:33 58.9 °F 48.0 °F 29.92 in Calm     67% 0.00 in 223.00 W/m2
16:38 58.8 °F 47.9 °F 29.92 in Calm   6.0 mph 67% 0.00 in 207.00 W/m2
16:43 58.7 °F 47.8 °F 29.92 in Calm   2.0 mph 67% 0.00 in 190.00 W/m2
16:48 58.7 °F 47.8 °F 29.92 in Calm   5.0 mph 67% 0.00 in 172.00 W/m2
16:53 58.6 °F 47.7 °F 29.92 in Calm   2.0 mph 67% 0.00 in 153.00 W/m2
16:58 58.5 °F 47.6 °F 29.92 in Calm     67% 0.00 in 135.00 W/m2
17:03 58.5 °F 48.0 °F 29.92 in Calm     68% 0.00 in 118.00 W/m2
17:08 58.4 °F 48.3 °F 29.92 in Calm     69% 0.00 in 100.00 W/m2
17:13 58.2 °F 47.7 °F 29.92 in Calm   1.0 mph 68% 0.00 in 83.00 W/m2
17:18 58.1 °F 47.6 °F 29.92 in Calm   4.0 mph 68% 0.00 in 70.00 W/m2
17:23 58.0 °F 47.5 °F 29.92 in Calm   1.0 mph 68% 0.00 in 56.00 W/m2
17:29 57.8 °F 47.7 °F 29.92 in Calm     69% 0.00 in 44.00 W/m2
17:34 57.7 °F 48.0 °F 29.92 in Calm   1.0 mph 70% 0.00 in 33.00 W/m2
17:39 57.6 °F 47.5 °F 29.92 in Calm   5.0 mph 69% 0.00 in 25.00 W/m2
17:44 57.4 °F 47.3 °F 29.92 in Calm   2.0 mph 69% 0.00 in 19.00 W/m2
17:49 57.2 °F 47.5 °F 29.92 in Calm     70% 0.00 in 16.00 W/m2
17:54 57.0 °F 47.3 °F 29.92 in Calm     70% 0.00 in 12.00 W/m2
17:59 56.8 °F 47.5 °F 29.92 in Calm     71% 0.00 in 9.00 W/m2
18:04 56.6 °F 47.3 °F 29.92 in Calm     71% 0.00 in 5.00 W/m2
18:09 56.3 °F 47.0 °F 29.92 in Calm     71% 0.00 in 5.00 W/m2
18:14 55.8 °F 46.9 °F 29.93 in Calm   3.0 mph 72% 0.00 in 0.00 W/m2
18:19 55.5 °F 47.0 °F 29.93 in Calm     73% 0.00 in 0.00 W/m2
18:24 55.2 °F 46.7 °F 29.93 in Calm     73% 0.00 in 0.00 W/m2
18:29 54.9 °F 46.8 °F 29.93 in Calm     74% 0.00 in 0.00 W/m2
18:34 54.7 °F 46.6 °F 29.93 in Calm     74% 0.00 in 0.00 W/m2
18:39 54.4 °F 46.3 °F 29.93 in Calm     74% 0.00 in 0.00 W/m2
18:44 54.1 °F 46.4 °F 29.93 in Calm   3.0 mph 75% 0.00 in 0.00 W/m2
18:49 53.8 °F 46.1 °F 29.93 in Calm   4.0 mph 75% 0.00 in 0.00 W/m2
18:54 53.6 °F 45.9 °F 29.94 in Calm     75% 0.00 in 0.00 W/m2
18:59 53.3 °F 45.9 °F 29.94 in Calm     76% 0.00 in 0.00 W/m2
19:04 53.0 °F 45.7 °F 29.94 in Calm     76% 0.00 in 0.00 W/m2
19:09 52.7 °F 45.7 °F 29.94 in Calm     77% 0.00 in 0.00 W/m2
19:14 52.4 °F 45.4 °F 29.94 in Calm     77% 0.00 in 0.00 W/m2
19:19 52.2 °F 45.2 °F 29.94 in Calm   2.0 mph 77% 0.00 in 0.00 W/m2
19:24 51.9 °F 45.3 °F 29.94 in Calm     78% 0.00 in 0.00 W/m2
19:29 51.7 °F 45.1 °F 29.94 in Calm     78% 0.00 in 0.00 W/m2
19:31 51.6 °F 45.0 °F 29.94 in Calm     78% 0.00 in 0.00 W/m2
19:36 51.4 °F 45.1 °F 29.94 in Calm   1.0 mph 79% 0.00 in 0.00 W/m2
19:41 51.2 °F 44.9 °F 29.94 in Calm     79% 0.00 in 0.00 W/m2
19:46 50.9 °F 44.6 °F 29.94 in Calm     79% 0.00 in 0.00 W/m2
19:51 50.5 °F 44.6 °F 29.94 in Calm     80% 0.00 in 0.00 W/m2
19:56 50.2 °F 44.3 °F 29.95 in Calm     80% 0.00 in 0.00 W/m2
20:01 50.0 °F 44.1 °F 29.95 in Calm     80% 0.00 in 0.00 W/m2
20:06 49.9 °F 44.3 °F 29.95 in Calm     81% 0.00 in 0.00 W/m2
20:12 49.7 °F 44.1 °F 29.95 in Calm     81% 0.00 in 0.00 W/m2
20:20 49.2 °F 44.0 °F 29.95 in Calm     82% 0.00 in 0.00 W/m2
20:21 49.1 °F 43.8 °F 29.95 in Calm     82% 0.00 in 0.00 W/m2
20:25 49.0 °F 43.8 °F 29.96 in Calm     82% 0.00 in 0.00 W/m2
20:26 49.0 °F 43.8 °F 29.96 in Calm     82% 0.00 in 0.00 W/m2
20:28 48.9 °F 43.7 °F 29.96 in Calm     82% 0.00 in 0.00 W/m2
20:29 48.9 °F 43.7 °F 29.96 in Calm     82% 0.00 in 0.00 W/m2
20:34 48.8 °F 43.6 °F 29.96 in Calm     82% 0.00 in 0.00 W/m2
20:39 48.7 °F 43.8 °F 29.96 in Calm   4.0 mph 83% 0.00 in 0.00 W/m2
20:44 48.7 °F 43.8 °F 29.96 in Calm   1.0 mph 83% 0.00 in 0.00 W/m2
20:49 48.6 °F 43.7 °F 29.96 in SW 1.0 mph 1.0 mph 83% 0.00 in 0.00 W/m2
20:54 48.5 °F 43.6 °F 29.96 in Calm   3.0 mph 83% 0.00 in 0.00 W/m2
20:59 48.5 °F 43.6 °F 29.96 in Calm   3.0 mph 83% 0.00 in 0.00 W/m2
21:04 48.5 °F 43.6 °F 29.96 in Calm     83% 0.00 in 0.00 W/m2
21:09 48.5 °F 43.6 °F 29.96 in Calm   4.0 mph 83% 0.00 in 0.00 W/m2
21:14 48.4 °F 43.5 °F 29.97 in SSW 1.0 mph 4.0 mph 83% 0.00 in 0.00 W/m2
21:19 48.4 °F 43.5 °F 29.96 in SSW 4.0 mph 6.0 mph 83% 0.00 in 0.00 W/m2
21:24 48.4 °F 43.5 °F 29.96 in Calm   4.0 mph 83% 0.00 in 0.00 W/m2
21:29 48.4 °F 43.5 °F 29.97 in Calm   6.0 mph 83% 0.00 in 0.00 W/m2
21:34 48.4 °F 43.5 °F 29.97 in Calm   3.0 mph 83% 0.00 in 0.00 W/m2
21:39 48.4 °F 43.5 °F 29.97 in Calm   1.0 mph 83% 0.00 in 0.00 W/m2
21:44 48.4 °F 43.5 °F 29.97 in Calm     83% 0.00 in 0.00 W/m2
21:49 48.4 °F 43.5 °F 29.97 in Calm   5.0 mph 83% 0.00 in 0.00 W/m2
21:54 48.4 °F 43.5 °F 29.96 in Calm   6.0 mph 83% 0.00 in 0.00 W/m2
21:59 48.4 °F 43.5 °F 29.96 in Calm   7.0 mph 83% 0.00 in 0.00 W/m2
22:04 48.4 °F 43.5 °F 29.96 in SSE 4.0 mph 8.0 mph 83% 0.00 in 0.00 W/m2
22:09 48.4 °F 43.8 °F 29.96 in SE 2.0 mph 8.0 mph 84% 0.00 in 0.00 W/m2
22:14 48.4 °F 43.8 °F 29.96 in SE 4.0 mph 7.0 mph 84% 0.00 in 0.00 W/m2
22:19 48.5 °F 43.9 °F 29.96 in SE 4.0 mph 7.0 mph 84% 0.00 in 0.00 W/m2
22:24 48.5 °F 43.9 °F 29.96 in ESE 2.0 mph 8.0 mph 84% 0.00 in 0.00 W/m2
22:30 48.5 °F 43.9 °F 29.97 in ESE 4.0 mph 9.0 mph 84% 0.00 in 0.00 W/m2
22:35 48.5 °F 43.9 °F 29.97 in ESE 2.0 mph 7.0 mph 84% 0.00 in 0.00 W/m2
22:40 48.6 °F 44.0 °F 29.97 in Calm   2.0 mph 84% 0.00 in 0.00 W/m2
22:45 48.6 °F 44.0 °F 29.98 in Calm     84% 0.00 in 0.00 W/m2
22:50 48.5 °F 43.9 °F 29.98 in Calm     84% 0.00 in 0.00 W/m2
22:55 48.5 °F 43.9 °F 29.99 in Calm     84% 0.00 in 0.00 W/m2
23:00 48.5 °F 43.9 °F 29.99 in Calm     84% 0.00 in 0.00 W/m2
23:05 48.5 °F 43.9 °F 29.99 in Calm   4.0 mph 84% 0.00 in 0.00 W/m2
23:10 48.5 °F 43.9 °F 29.98 in Calm     84% 0.00 in 0.00 W/m2
23:15 48.4 °F 43.8 °F 29.98 in Calm     84% 0.00 in 0.00 W/m2
23:20 48.4 °F 43.8 °F 29.98 in Calm   1.0 mph 84% 0.00 in 0.00 W/m2
23:25 48.4 °F 43.8 °F 29.98 in ESE 2.0 mph 5.0 mph 84% 0.00 in 0.00 W/m2
23:30 48.3 °F 43.7 °F 29.98 in Calm   5.0 mph 84% 0.00 in 0.00 W/m2
23:35 48.3 °F 43.7 °F 29.98 in Calm   4.0 mph 84% 0.00 in 0.00 W/m2
23:40 48.3 °F 43.7 °F 29.99 in ESE 1.0 mph 4.0 mph 84% 0.00 in 0.00 W/m2
23:45 48.2 °F 43.6 °F 29.99 in ESE 4.0 mph 6.0 mph 84% 0.00 in 0.00 W/m2
23:50 48.2 °F 43.6 °F 29.99 in Calm   5.0 mph 84% 0.00 in 0.00 W/m2
23:55 48.2 °F 43.6 °F 29.99 in Calm   2.0 mph 84% 0.00 in 0.00 W/m2
Foresthill Weather
 WU-history PHP script courtesy of   Juneau County Weather.
powered by Cumulus v1.9.3 (1059)
Ambient Weather VWS v14.00
Top Contact Website Map Copyright © 2007 - 2018 Foresthillweather.com Never base important decisions on this or any weather information obtained from the Internet